Theta_e
319 321 321 321 321 321 322 323 323 323 322 320 320 319 320 322 323 323 322 320 320 319 317 315 314 313 313 313 313 313 312 315 320 321 321 321 321 322 323 323 324 322 323 325 325 325 326 326 326 325 326 328 330 332 334 335 335 335 336 335 334 334 333 332 332 333 332 332 331 326 325 326 327 327 327 327 327 328 328 328 328 328 326 326 327
319 322 322 321 321 321 322 324 324 324 324 323 323 323 323 323 324 324 322 319 320 319 316 314 314 314 314 313 313 314 313 315 318 320 320 321 321 321 321 321 322 321 322 323 323 324 324 325 325 325 325 325 326 326 328 330 332 335 336 336 335 333 333 331 329 331 332 332 331 329 327 326 327 327 327 327 327 327 327 328 328 327 326 326 326
322 324 324 322 322 322 322 324 325 325 325 325 324 324 324 323 324 326 323 319 319 319 317 316 314 313 315 314 313 315 317 319 320 320 320 321 320 320 320 320 319 319 321 321 322 323 323 324 324 325 325 326 326 326 326 326 327 330 332 334 336 334 334 333 330 330 331 332 331 330 330 330 330 328 328 328 327 327 327 328 328 327 326 326 326
322 323 324 323 323 322 323 324 325 326 326 325 325 324 324 324 324 326 324 320 319 319 319 317 313 312 314 315 315 316 318 319 319 318 318 318 319 319 319 318 317 318 320 320 321 321 322 323 323 324 324 325 327 328 328 329 328 327 328 330 333 335 334 334 333 331 331 333 333 332 331 331 332 330 329 328 328 328 328 327 328 327 327 326 326
324 323 325 325 324 323 323 323 324 325 326 326 325 325 324 323 324 325 324 321 319 318 318 315 313 315 318 319 320 319 318 316 315 315 316 317 318 318 318 318 318 318 319 319 319 320 321 322 323 323 324 324 325 327 328 329 329 329 329 328 330 332 333 333 334 333 332 332 333 333 332 332 332 330 329 329 328 328 329 328 328 328 327 326 326
324 324 325 325 324 323 323 322 323 325 326 326 324 324 324 323 323 324 324 322 319 317 316 315 317 321 321 321 322 320 318 315 314 316 317 317 316 316 318 318 317 318 318 318 319 319 320 321 321 322 323 323 324 325 326 327 328 328 329 329 329 330 332 333 333 334 333 333 332 333 332 331 332 331 330 332 331 329 329 328 328 327 327 326 326
323 323 324 325 325 324 324 323 322 324 325 325 325 323 324 323 323 324 324 322 319 316 316 318 320 320 318 318 317 316 316 315 315 317 317 317 317 317 318 318 317 318 318 318 318 319 319 319 320 320 321 322 322 323 324 325 327 328 328 329 329 329 331 333 334 334 334 333 331 331 330 330 331 331 330 331 332 331 329 328 328 328 327 327 326
323 324 325 326 326 324 325 324 322 323 323 325 325 324 323 322 323 325 324 322 320 318 317 318 319 317 316 316 315 315 317 316 316 318 316 317 318 317 318 318 317 317 317 317 318 318 318 319 319 320 320 320 321 321 322 323 324 325 327 328 329 329 330 332 333 333 332 331 330 330 330 330 331 331 330 329 330 333 332 329 329 328 327 328 327
321 323 325 327 326 323 323 324 323 322 322 324 325 324 323 323 323 325 324 322 321 318 317 317 318 318 317 316 316 316 317 316 317 317 316 316 318 318 317 317 317 316 316 317 317 317 318 318 318 319 319 319 320 320 320 321 322 322 324 326 328 330 330 330 332 332 332 331 330 330 330 331 330 331 331 329 327 330 332 331 331 330 329 328 328
319 321 323 325 324 322 322 323 322 322 322 323 324 325 324 323 324 325 325 323 321 319 316 317 318 318 317 317 317 316 316 316 316 316 317 317 317 318 317 317 317 317 316 316 316 316 316 317 317 317 318 319 319 319 319 319 320 321 322 323 325 327 329 330 330 330 331 332 331 331 331 332 332 331 331 330 327 329 332 331 331 332 332 330 329
318 319 322 323 323 322 321 322 322 322 322 322 324 325 325 324 324 326 326 323 321 319 317 317 317 317 317 317 317 316 316 316 316 316 317 317 317 318 317 316 316 316 317 316 316 316 316 316 316 316 317 317 318 319 319 319 320 320 321 321 322 324 326 329 330 330 331 331 331 331 332 333 332 332 330 329 329 332 334 333 331 331 332 330 330
317 319 321 323 325 324 322 322 321 322 323 322 324 326 327 326 325 326 326 323 322 320 318 318 317 315 316 317 316 317 316 316 317 317 317 317 317 317 316 316 315 315 316 316 316 316 316 315 315 315 315 316 317 318 318 319 320 320 321 321 322 323 324 326 328 330 331 331 331 331 332 333 332 332 331 329 329 331 333 334 332 331 331 330 329
317 319 321 324 327 326 323 322 322 323 323 323 325 328 329 327 327 328 327 324 322 321 319 319 317 315 318 318 317 317 317 316 317 317 317 317 316 316 316 315 315 315 315 315 315 316 315 315 315 316 316 316 316 316 317 317 318 318 319 320 321 322 323 324 325 327 329 331 331 331 332 333 332 332 331 329 329 330 332 332 331 330 331 330 328
317 318 320 323 325 325 323 322 323 324 324 324 327 329 330 329 329 329 327 325 323 321 320 320 319 317 318 318 317 317 317 317 317 317 317 317 315 316 315 314 314 314 314 314 314 314 314 314 314 314 314 314 314 314 315 315 316 316 317 318 319 320 321 322 323 324 326 328 330 331 332 332 332 332 331 330 329 329 330 331 330 330 330 329 329
317 317 319 323 323 323 323 322 323 325 325 327 328 330 331 330 330 329 327 325 324 322 320 321 320 318 318 317 317 316 316 316 316 315 316 316 315 315 315 314 314 313 313 314 313 314 313 313 313 313 312 312 312 312 313 314 315 315 316 317 317 318 319 320 321 322 324 326 328 330 331 331 331 331 331 330 329 329 328 328 329 330 331 331 331
318 318 320 324 324 323 323 323 323 325 327 328 329 331 331 330 330 329 328 326 324 322 321 320 320 319 318 317 316 316 315 315 315 314 315 316 315 315 314 314 314 314 314 313 313 314 313 313 313 312 312 312 312 312 312 313 313 314 315 315 316 317 318 319 320 321 322 324 326 328 329 329 330 330 330 330 330 329 328 327 328 329 330 332 333
317 318 319 323 324 324 324 323 323 324 325 327 328 329 330 330 330 329 327 326 325 323 321 320 319 319 318 317 316 315 315 315 314 314 314 315 315 314 313 314 313 313 313 313 313 313 313 313 312 312 311 311 311 311 311 311 311 312 313 314 315 316 317 318 319 320 321 322 324 326 328 328 329 329 330 330 330 330 329 328 328 328 329 330 332
317 317 318 321 324 324 324 323 323 323 324 325 326 328 330 330 329 328 327 326 325 323 321 320 319 319 318 317 315 315 314 314 313 314 314 314 313 312 312 313 313 312 313 313 313 312 312 312 311 311 310 309 309 309 309 309 310 310 311 311 313 314 315 316 317 318 320 321 322 324 326 328 328 329 329 329 329 330 330 329 328 328 328 329 329
318 317 318 320 322 323 323 323 322 321 322 323 324 326 329 329 328 328 327 326 325 323 321 320 319 319 318 317 315 314 314 313 313 314 314 314 313 313 313 313 312 312 312 311 311 311 310 310 310 310 309 309 308 308 308 308 308 309 309 310 311 312 313 314 315 317 318 320 321 322 324 326 327 328 329 329 329 329 330 329 329 328 328 328 328
319 315 316 319 320 320 321 322 321 320 320 320 322 326 329 329 328 327 326 325 325 323 321 320 319 319 318 317 316 315 314 313 313 313 313 313 313 313 313 312 312 311 310 310 310 310 309 309 308 308 308 308 308 307 307 307 307 308 308 309 309 310 311 313 314 316 317 319 320 321 322 324 325 327 328 329 329 329 329 329 329 329 328 328 328
323 319 318 319 320 319 320 321 319 319 319 319 321 325 328 327 326 326 325 324 325 323 320 319 319 318 318 316 315 314 313 313 313 313 312 312 312 312 312 311 311 310 310 309 309 309 308 307 307 307 307 307 307 307 307 306 307 307 307 308 308 308 309 311 312 314 315 317 318 320 321 322 323 325 326 328 328 328 329 329 329 329 328 329 329
324 323 320 320 320 318 319 319 318 318 320 321 323 324 325 326 326 325 324 323 324 322 320 319 318 317 317 316 315 314 314 313 313 313 312 312 312 312 311 311 310 310 309 309 308 308 307 307 307 306 306 306 306 306 306 306 306 306 307 307 307 308 308 309 310 312 314 315 316 318 320 321 322 323 325 327 328 328 328 328 329 329 329 329 329
323 323 322 321 320 318 317 317 316 320 324 324 324 324 324 326 325 324 323 322 323 322 320 319 318 317 316 316 315 314 313 313 313 313 313 312 312 312 311 311 310 310 309 309 308 308 307 307 307 306 306 306 305 305 305 305 306 306 306 306 306 307 308 308 309 310 312 313 315 316 317 319 321 322 323 325 327 327 328 328 329 329 329 329 329
322 322 323 322 320 317 317 316 316 322 325 326 325 325 325 325 324 322 322 322 323 321 319 318 317 316 316 315 315 314 314 313 313 313 313 312 312 311 311 311 310 310 309 309 308 307 307 307 306 306 306 306 305 305 305 305 305 305 306 306 306 306 307 307 308 308 310 311 313 314 315 317 319 320 322 323 325 327 327 328 328 328 328 328 328
320 320 321 321 320 317 316 315 315 319 323 325 325 324 324 324 322 321 321 322 322 320 318 318 317 316 316 315 315 314 314 313 313 313 312 312 312 311 311 311 310 309 309 308 307 307 306 306 306 306 306 305 305 305 305 305 305 305 305 305 306 306 306 307 307 307 308 309 311 313 314 315 316 318 320 321 322 324 326 327 328 327 327 327 327
320 319 320 320 320 318 316 316 315 316 320 323 323 322 323 323 321 321 321 321 321 319 318 317 316 316 316 315 315 314 313 313 312 312 312 311 311 311 310 310 309 308 308 307 307 306 306 306 305 306 305 306 306 305 305 305 305 305 305 305 305 305 305 306 306 307 307 308 309 311 312 314 315 316 318 319 321 322 324 325 326 327 327 326 327
319 319 319 320 319 318 317 316 315 316 318 321 322 321 322 322 320 320 320 320 320 319 317 316 316 316 316 315 315 314 313 312 312 312 312 311 311 310 309 308 308 307 307 306 306 305 305 305 305 305 305 305 305 306 306 305 305 305 305 305 305 305 305 305 305 306 306 307 307 309 310 312 313 315 316 318 319 320 322 323 324 326 327 327 327
315 317 318 319 319 319 319 317 316 316 317 320 321 320 320 321 320 319 320 319 319 318 316 315 315 315 315 315 314 313 312 312 312 311 311 310 309 308 308 307 307 306 305 305 305 305 304 304 305 305 305 305 305 305 305 305 305 304 305 305 305 304 304 304 305 305 305 306 306 307 308 309 311 313 314 316 318 319 320 322 322 324 326 327 328
311 314 316 317 318 320 320 319 318 316 316 318 319 318 318 319 319 318 319 318 318 317 316 315 315 315 315 314 313 312 312 311 311 310 309 309 308 307 307 306 305 305 304 304 304 304 304 304 304 304 304 304 304 305 304 304 304 304 304 304 304 304 304 304 304 305 305 305 305 306 306 307 308 310 312 314 315 317 318 320 321 322 323 325 327
309 311 314 316 317 318 320 321 319 318 317 317 317 316 318 319 318 318 318 317 317 316 315 315 314 314 313 312 311 311 311 310 310 309 308 308 307 306 306 305 305 304 304 304 303 303 303 303 303 303 303 304 304 304 304 304 304 304 304 304 304 303 304 304 304 304 304 305 305 305 305 306 307 308 309 310 312 314 316 317 318 319 319 320 322
310 311 313 314 316 319 323 324 318 315 315 316 317 316 318 318 317 316 317 317 316 315 315 314 313 313 312 311 311 311 310 310 309 308 308 307 306 306 305 305 304 304 303 303 303 302 302 302 302 302 302 302 303 303 303 303 303 303 303 303 303 302 303 303 302 303 303 304 304 305 305 305 306 306 307 309 310 312 313 315 316 317 318 318 318
311 312 314 315 316 320 325 323 316 313 314 315 316 316 316 316 315 315 316 316 315 314 314 313 312 311 311 311 311 310 309 308 308 308 307 306 305 305 304 304 304 303 303 302 302 301 301 301 301 301 301 301 302 302 302 302 302 302 302 302 302 302 302 302 302 302 301 302 302 303 304 305 306 306 307 308 309 311 312 313 314 315 316 317 317
311 313 315 315 315 318 323 321 315 313 313 315 315 315 315 315 314 314 315 315 314 313 312 312 311 310 311 311 310 309 308 308 308 307 306 305 305 304 304 303 303 302 302 302 301 301 301 301 301 300 300 300 300 300 300 300 300 300 300 300 300 300 300 301 301 301 301 301 301 301 302 303 304 305 307 308 309 310 311 313 314 315 315 316 317
310 313 315 315 315 316 318 318 315 314 315 316 315 314 313 313 314 314 314 313 312 311 311 310 310 310 310 310 309 308 308 307 307 306 305 305 304 304 303 303 302 302 302 301 301 301 300 300 300 300 300 300 300 299 299 299 299 299 299 299 299 298 299 299 300 300 300 300 300 300 301 301 302 303 305 307 309 310 311 313 315 316 316 315 316
311 314 316 317 316 315 315 316 316 315 315 315 315 313 312 313 313 313 313 312 311 310 310 310 310 310 309 309 308 307 307 307 306 305 305 304 304 303 303 302 302 302 301 301 300 300 300 300 300 300 300 300 299 299 299 299 299 299 298 298 298 298 298 298 298 299 299 300 300 300 300 300 300 301 302 305 307 309 311 313 315 317 318 317 317
311 314 316 316 316 315 315 317 317 315 313 314 314 313 311 312 313 312 311 311 310 310 310 310 309 309 308 307 307 306 306 306 305 305 304 304 304 303 303 302 302 301 300 300 300 300 300 299 299 299 299 299 299 299 299 298 298 298 298 297 297 297 297 298 298 298 298 299 299 299 299 300 300 300 301 302 304 306 308 310 313 316 318 319 319
310 313 315 315 314 315 315 316 316 314 314 314 313 311 311 312 312 311 310 310 309 309 309 309 309 308 307 307 306 306 306 305 305 305 304 304 303 303 302 301 301 300 300 300 299 299 299 299 299 299 299 299 298 298 298 297 297 297 296 296 296 297 297 297 297 297 298 298 298 298 299 299 299 300 300 300 301 303 304 306 308 311 315 318 320
310 312 314 315 315 315 314 314 315 314 313 312 311 311 311 311 311 311 310 309 309 309 309 308 308 307 307 306 306 305 305 305 304 304 303 303 302 302 301 301 300 300 299 299 299 299 298 298 298 298 298 298 297 297 297 296 296 296 296 295 296 296 296 296 297 297 297 297 298 298 298 299 299 299 300 300 301 301 303 304 306 309 312 315 319
313 314 316 315 314 315 315 314 315 314 312 312 311 311 311 311 311 310 309 309 309 308 308 307 307 306 305 305 305 305 304 304 304 303 303 302 302 301 301 300 299 299 299 298 298 298 298 297 297 297 297 296 296 296 296 296 296 295 295 295 295 295 295 296 296 296 296 297 297 297 298 298 299 299 299 300 300 301 302 303 305 308 311 314 317
314 315 315 313 312 314 315 315 314 314 313 312 311 311 311 311 310 309 309 309 308 308 307 306 305 304 304 304 304 304 304 303 303 303 302 302 301 300 300 299 299 299 298 298 298 297 297 297 296 296 296 295 295 295 295 295 295 294 294 294 294 295 295 295 296 296 296 296 297 297 298 298 298 298 299 299 299 300 301 301 302 304 308 312 316
312 313 314 313 313 313 314 314 314 313 312 311 311 311 311 310 310 309 309 308 307 306 305 304 303 303 303 303 303 303 303 303 303 302 301 301 300 300 299 299 298 298 298 297 297 297 296 296 295 295 295 295 295 295 294 294 294 294 294 293 294 294 295 295 296 296 296 296 297 297 297 298 298 298 299 299 299 299 300 300 300 301 303 306 309
311 311 311 311 311 312 313 313 312 312 311 310 310 311 310 309 309 308 308 307 306 305 303 303 303 303 303 303 303 303 303 303 302 302 301 301 300 299 299 298 298 297 297 297 296 296 296 295 295 295 294 294 294 294 294 293 293 293 293 293 293 294 294 295 295 296 296 296 296 297 297 297 298 298 299 299 300 300 300 300 300 300 301 302 304
311 309 308 308 310 311 312 311 311 310 310 310 310 310 309 308 308 308 307 306 305 304 303 303 303 302 302 302 302 302 302 302 301 301 301 300 299 299 298 298 297 297 296 296 296 295 295 295 295 294 294 294 293 293 293 293 292 292 292 293 293 293 293 294 294 295 296 296 296 296 297 297 297 298 299 299 300 300 300 300 300 300 301 302 302
310 308 307 307 309 311 311 310 309 309 309 310 310 309 308 308 308 306 304 304 303 303 302 302 302 302 302 302 302 301 301 300 300 300 299 299 299 298 298 298 297 296 296 296 295 295 295 294 294 294 294 293 293 292 292 292 292 292 292 292 292 292 292 293 293 294 295 295 296 296 296 296 297 298 299 299 300 301 301 302 302 302 303 303 303
309 308 308 308 309 309 310 310 309 308 309 310 309 308 308 307 306 304 303 303 303 302 302 302 302 302 301 301 300 300 299 299 299 298 298 298 299 298 297 297 297 296 296 296 295 295 294 294 293 293 293 293 292 292 291 291 291 291 291 292 292 292 292 292 292 292 293 294 295 295 295 296 297 298 299 300 300 301 302 302 303 304 304 304 304
308 309 309 309 308 308 310 310 309 307 308 309 308 308 308 306 304 303 303 303 303 303 302 302 301 301 301 300 299 299 298 298 298 298 298 298 298 298 297 297 297 296 296 296 295 294 294 293 293 292 292 292 291 291 290 290 290 291 291 291 291 290 290 291 291 291 292 293 294 294 295 295 296 298 300 300 301 302 302 303 304 304 304 305 306
308 309 309 308 308 308 309 309 308 307 307 308 308 307 306 304 304 303 303 303 303 302 302 301 301 301 300 299 299 299 299 299 299 298 298 298 297 297 297 297 297 296 296 295 294 294 293 293 292 292 291 291 290 290 290 290 290 290 290 290 290 290 290 290 291 291 292 293 294 295 295 295 296 298 299 300 301 302 303 304 305 305 304 306 308
308 308 307 307 308 308 308 308 308 307 307 307 307 307 305 304 303 303 303 303 302 302 302 301 301 300 300 300 300 299 299 299 299 299 299 298 297 297 297 296 296 296 295 294 294 293 293 292 291 291 291 290 290 290 290 289 289 289 289 289 289 290 290 290 291 292 293 295 296 297 296 295 296 297 299 299 300 301 302 304 305 305 305 307 309
309 308 307 307 307 307 308 308 307 306 307 307 307 306 305 303 303 303 303 302 302 301 301 301 301 301 300 300 300 300 300 299 299 299 299 298 297 297 296 296 296 295 294 293 292 292 292 292 291 291 290 290 289 289 289 289 289 289 289 289 290 290 291 292 293 294 295 295 296 296 296 296 297 298 298 299 300 301 302 304 305 306 307 308 309
308 307 307 307 307 307 308 308 307 306 306 306 306 305 304 303 303 303 303 302 301 301 301 301 301 301 300 300 300 300 300 299 299 299 299 298 297 297 296 295 295 294 292 292 292 292 292 291 291 290 290 289 289 289 289 289 289 289 290 290 291 291 292 293 295 296 296 296 296 296 296 297 298 298 299 299 300 301 302 304 306 307 308 308 308
308 307 307 307 307 307 308 308 308 307 306 306 305 304 304 304 303 303 303 302 301 302 302 302 302 301 300 300 300 300 300 300 299 299 298 297 297 296 296 295 294 293 293 292 291 292 292 291 291 290 290 289 289 289 289 289 289 289 290 291 291 292 293 294 296 297 297 296 296 297 297 298 299 299 299 300 300 301 302 303 304 305 306 306 306
Wind_Speed
11 18 27 26 23 25 25 25 23 21 22 22 21 20 19 18 16 14 12 11 7 6 6 6 6 6 6 5 5 7 7 6 6 5 3 2 2 2 1 1 2 3 3 2 1 2 3 3 4 6 7 9 10 11 12 13 15 16 15 14 15 15 16 17 14 12 11 13 11 8 11 10 12 15 17 17 17 18 19 18 19 19 17 17 17
9 12 22 27 27 28 27 27 26 23 22 22 20 19 19 18 16 15 13 10 7 7 8 7 5 5 5 4 4 5 6 6 6 4 4 3 2 3 2 2 1 3 2 2 2 2 2 2 3 5 6 6 8 11 14 16 16 16 15 14 16 17 18 19 17 14 10 8 7 5 5 9 13 16 17 18 19 19 18 19 22 21 19 19 18
7 8 13 22 28 30 28 27 27 25 23 23 21 19 18 17 17 16 14 12 9 9 9 8 7 7 6 5 4 4 4 5 6 5 5 3 2 2 2 1 0 2 2 3 3 2 3 3 3 4 5 6 8 8 10 13 15 17 18 17 16 16 17 18 18 17 12 9 7 6 4 5 8 13 17 19 21 22 21 21 22 21 21 20 19
9 8 9 15 25 28 26 25 26 25 24 24 22 21 20 18 17 17 15 14 12 11 11 10 8 7 6 5 5 6 5 5 6 5 4 3 2 2 1 1 2 2 2 3 3 3 4 3 3 4 5 6 7 8 8 10 11 14 17 19 18 17 19 18 17 20 19 13 5 3 5 4 4 9 15 22 25 24 24 24 22 22 22 22 20
7 8 8 9 18 24 24 24 25 25 24 25 25 23 21 20 18 18 17 15 14 13 13 11 9 7 7 5 5 7 7 6 5 4 3 3 2 1 0 1 1 2 2 2 3 4 5 4 3 4 6 7 8 8 9 10 10 11 13 17 21 22 23 20 16 18 23 23 15 6 4 3 3 4 9 16 23 24 24 25 24 23 23 23 22
4 6 6 7 13 20 25 25 23 23 24 25 27 24 22 21 19 19 18 16 16 16 14 11 9 8 8 8 8 8 7 7 5 4 4 2 1 0 1 1 1 1 1 2 3 4 5 4 5 5 6 8 9 10 10 11 12 13 13 15 20 24 26 23 19 19 22 25 24 19 15 10 6 5 3 4 15 23 25 23 24 25 24 23 22
5 7 6 10 12 16 22 25 24 23 23 24 27 26 22 22 21 20 19 17 17 17 15 12 11 10 9 7 6 5 6 7 5 4 4 2 1 1 1 1 1 1 1 1 2 3 3 4 5 6 7 8 9 11 12 12 12 12 13 15 18 21 24 24 24 23 21 20 23 25 25 22 17 12 7 3 5 13 20 22 22 24 25 23 23
8 7 7 10 14 15 18 24 25 24 24 23 26 26 23 22 22 22 20 18 19 18 17 15 13 12 10 7 6 5 5 7 5 4 4 3 2 1 1 1 1 1 1 2 2 2 3 4 5 6 8 9 10 11 12 12 13 13 13 14 17 19 22 25 26 25 21 20 23 24 24 24 23 20 16 12 5 2 10 16 19 23 25 25 25
9 9 8 7 13 18 19 23 26 25 26 24 24 25 24 23 23 23 21 19 20 19 19 16 14 14 12 9 9 7 6 7 7 6 4 4 4 2 1 1 1 1 1 2 3 3 3 4 6 7 7 8 10 11 12 13 14 15 14 13 15 17 21 23 26 25 23 24 25 23 23 24 25 24 21 16 10 5 4 6 12 17 20 23 26
10 11 9 7 13 20 21 23 25 26 26 25 24 24 24 22 23 25 22 21 21 20 20 17 15 15 13 11 10 9 8 7 7 8 6 5 4 3 2 2 2 1 2 2 3 4 4 5 5 7 7 9 10 11 13 14 15 15 15 16 16 17 19 21 25 26 25 26 26 23 21 20 19 19 19 17 13 8 4 3 7 9 10 16 24
11 12 11 10 14 21 22 22 23 24 25 25 23 23 24 23 23 25 23 21 22 21 20 18 17 16 14 12 11 10 9 9 7 7 7 6 5 4 3 3 3 3 3 3 4 4 4 5 5 6 8 9 10 10 12 14 15 15 15 16 17 18 19 19 22 24 26 27 27 26 25 22 19 16 18 19 14 7 4 4 6 5 4 9 17
12 12 11 11 12 17 20 20 21 22 24 24 24 23 23 23 23 24 23 22 22 22 20 19 18 16 14 14 13 12 11 10 8 8 8 7 5 5 4 4 4 4 4 4 4 4 5 6 6 7 7 8 9 10 12 13 15 16 14 14 16 18 18 18 19 21 24 26 28 29 28 27 25 23 22 21 16 11 7 4 5 5 4 8 13
11 10 10 11 10 12 16 18 19 21 23 24 23 23 22 22 23 24 24 23 22 22 21 19 18 17 16 16 15 13 12 10 9 8 8 7 6 6 5 4 4 4 5 4 4 5 6 7 7 8 9 9 10 11 13 15 17 18 17 16 16 16 17 18 20 21 22 24 27 29 29 29 27 26 25 24 20 15 9 6 8 8 4 9 17
10 10 10 11 11 12 17 20 19 20 22 22 22 22 21 21 23 24 24 23 22 22 21 19 18 17 17 16 15 14 13 12 10 9 9 8 7 6 6 5 5 5 5 6 7 7 7 8 8 10 11 12 13 14 15 15 16 17 18 18 18 17 17 18 20 22 22 23 24 26 28 29 30 29 28 26 24 20 14 10 9 8 5 8 14
8 9 9 11 15 16 20 22 21 21 22 21 21 21 21 21 23 23 23 23 22 22 21 20 18 17 17 16 15 15 14 13 11 10 9 9 7 7 7 6 6 6 6 7 8 8 9 9 10 11 13 14 15 15 16 16 15 16 17 18 19 19 19 19 20 21 22 22 23 25 26 27 29 30 29 29 28 26 23 20 13 7 6 6 8
9 8 7 8 15 19 20 22 22 23 23 22 21 22 21 21 22 22 22 23 23 22 21 20 18 18 17 16 16 15 14 13 12 11 10 10 9 8 8 7 7 7 7 8 8 9 9 10 11 11 12 13 14 15 15 16 16 16 16 17 18 19 19 20 20 21 23 22 22 24 25 26 26 27 29 30 29 28 27 26 21 13 8 5 5
7 7 7 7 12 18 20 20 20 22 24 24 23 23 22 21 21 22 21 23 23 22 21 20 19 18 18 17 16 15 14 14 13 12 11 11 10 9 8 8 8 8 8 8 9 9 10 10 11 13 13 13 14 15 15 16 16 17 17 17 18 18 19 21 21 21 22 22 22 22 24 26 26 25 26 28 28 29 28 28 27 22 16 9 4
7 5 6 6 10 17 21 21 22 22 25 26 26 25 23 21 21 22 22 23 24 23 22 21 20 19 18 18 17 16 16 14 13 12 12 11 11 10 9 8 8 8 8 9 9 10 11 12 13 14 15 15 16 16 16 16 16 16 17 18 19 18 20 21 21 22 22 22 22 22 22 24 25 25 26 27 27 28 28 29 29 28 24 17 9
6 6 5 5 7 15 22 24 23 24 24 25 27 26 24 22 21 22 23 24 25 24 23 22 21 20 19 18 18 17 16 16 14 13 13 12 11 10 9 9 9 9 9 10 11 11 12 12 13 14 15 15 16 16 16 16 16 17 18 19 19 19 19 21 21 22 23 22 22 23 22 23 24 25 26 27 28 28 28 29 30 30 29 26 21
6 6 6 6 6 11 21 24 23 23 24 24 25 26 25 23 21 21 22 23 25 25 23 22 21 20 19 19 19 18 16 16 15 14 13 12 11 10 10 10 10 11 11 11 12 12 12 13 13 14 15 15 16 16 16 16 16 17 18 19 19 19 19 20 21 22 22 23 23 23 23 23 23 24 26 27 28 29 29 29 29 30 31 29 28
5 4 5 5 6 9 17 23 22 23 25 25 26 28 27 26 24 22 22 23 24 25 23 23 22 21 20 20 19 18 17 15 15 14 13 12 11 11 11 11 11 12 12 12 13 13 14 14 15 15 15 16 16 16 17 17 17 18 19 20 20 20 20 20 21 22 22 23 24 24 24 24 24 24 26 27 28 30 30 30 29 28 31 30 30
3 3 5 5 5 8 14 19 19 19 22 25 27 28 27 26 25 24 23 23 25 25 24 23 23 22 21 20 20 18 17 16 15 14 13 12 11 12 12 12 13 13 13 14 14 15 15 16 16 16 16 17 17 17 17 17 18 19 20 20 20 20 21 21 22 22 22 22 24 25 25 25 25 25 26 27 28 29 29 31 30 28 29 30 30
2 3 4 5 5 8 12 16 17 17 21 24 24 24 24 24 24 24 24 24 25 26 24 23 23 22 21 20 19 18 17 16 15 14 13 12 12 12 12 13 13 14 14 15 15 16 16 16 17 17 18 18 18 18 19 19 19 20 20 21 21 21 22 22 22 23 23 23 24 26 27 25 25 25 25 26 28 29 29 29 31 30 29 30 31
6 4 5 5 6 8 10 14 16 16 21 23 21 20 21 22 22 23 23 24 25 25 23 22 22 21 21 20 19 18 17 16 15 14 13 12 12 12 12 13 14 14 15 15 16 16 16 17 18 19 19 19 19 20 20 20 20 21 22 22 22 23 23 23 24 24 23 24 24 26 28 28 26 25 24 24 25 28 29 28 30 30 29 30 32
8 7 8 8 8 9 9 12 16 16 19 21 20 20 21 22 22 23 24 24 25 24 23 22 22 21 21 20 19 17 16 15 14 13 12 12 12 12 12 12 13 14 15 16 16 16 17 17 19 20 20 21 21 21 21 21 22 22 23 24 24 23 24 24 25 25 25 25 25 26 28 29 30 29 26 24 23 24 27 29 30 30 29 30 31
8 8 9 9 8 10 9 12 17 16 20 21 20 20 20 22 23 23 24 25 25 25 24 22 22 21 21 20 18 17 15 14 14 13 12 12 11 11 12 12 13 14 14 15 16 17 18 18 19 20 21 22 23 23 23 23 24 24 24 25 25 25 26 26 26 26 26 26 26 26 27 28 30 32 30 27 26 25 25 26 29 30 30 31 30
8 9 10 8 7 11 12 14 17 15 21 23 22 21 21 22 23 23 24 25 25 25 24 22 22 21 20 19 18 17 15 14 13 12 11 11 10 10 11 11 12 13 14 15 17 17 18 19 20 21 21 22 22 23 24 24 25 25 26 27 27 26 26 26 27 27 27 27 27 27 27 27 28 31 32 31 29 28 26 24 25 28 30 30 29
11 11 11 8 6 9 12 15 17 16 19 22 22 22 22 23 23 23 24 24 25 25 23 22 22 21 20 19 17 16 15 13 12 11 10 10 10 10 10 10 11 12 14 16 17 18 19 20 20 21 22 23 23 23 24 24 25 25 25 26 27 27 27 27 28 28 28 28 28 28 29 29 29 30 31 33 33 31 28 26 25 25 26 29 31
15 13 13 11 6 5 9 11 12 16 17 21 25 23 21 22 22 22 23 23 24 24 23 21 21 20 19 17 16 15 13 12 11 10 10 10 9 9 9 10 12 13 14 16 17 18 19 20 21 22 22 23 23 24 24 24 25 26 26 26 26 26 26 27 28 28 29 30 30 29 30 31 32 32 32 33 36 35 33 31 29 27 24 24 27
17 16 14 14 11 6 5 5 5 11 16 12 21 23 21 22 21 20 21 22 23 23 22 21 19 18 17 15 14 13 12 11 11 10 10 9 9 9 11 12 13 14 14 16 17 17 18 20 21 22 23 24 24 24 24 25 27 28 29 29 28 28 28 27 27 28 28 29 30 31 31 32 33 35 36 37 38 39 40 41 40 37 33 28 24
16 16 15 14 14 9 6 2 1 6 18 21 14 21 22 21 20 20 21 21 21 21 21 20 18 17 16 15 13 13 12 11 11 11 10 9 10 10 12 12 13 14 15 16 16 17 18 20 21 22 24 24 25 25 25 26 28 29 31 31 31 31 31 31 31 30 29 29 30 30 31 32 33 34 36 37 38 40 43 45 47 47 43 39 34
16 16 14 12 13 10 8 6 6 5 9 22 16 15 20 20 20 20 20 20 19 19 19 18 17 17 16 15 14 12 12 11 11 10 10 10 10 10 11 13 14 15 16 16 16 17 19 20 22 24 24 25 26 25 26 28 29 30 31 32 33 33 33 33 33 32 32 31 30 31 31 31 32 32 32 34 35 37 39 42 46 50 51 49 46
17 16 13 12 12 9 6 9 14 13 12 16 16 14 17 20 20 20 20 19 19 18 17 17 16 16 15 14 13 12 11 10 10 10 10 10 10 11 12 13 14 16 16 15 15 18 21 22 23 24 25 26 26 26 27 28 30 31 31 32 33 33 33 33 33 33 34 34 33 32 32 32 32 31 32 33 33 34 35 37 40 45 50 53 53
17 14 11 10 10 11 11 15 21 21 21 21 20 19 19 21 21 21 20 19 19 17 16 16 15 14 14 13 12 10 10 9 9 10 11 11 11 12 13 14 15 15 14 14 16 18 21 23 23 24 25 27 27 27 29 30 31 32 33 34 35 35 34 34 34 34 34 36 36 35 34 34 32 32 32 32 31 31 32 34 35 38 43 50 53
16 12 8 9 9 11 16 17 21 25 25 23 21 21 21 23 22 21 20 19 19 17 16 16 14 12 11 11 10 9 9 9 9 10 11 11 12 13 13 14 14 13 13 15 17 19 21 23 24 25 26 27 27 28 29 31 31 32 33 34 36 37 37 36 35 35 35 36 37 37 37 37 35 34 34 33 32 30 30 30 31 33 36 41 45
15 12 10 12 11 10 15 17 18 26 27 25 25 23 20 22 22 21 19 19 18 16 15 15 14 11 9 8 8 8 8 9 10 11 11 12 13 13 13 13 13 13 14 16 17 19 21 23 24 25 26 27 27 27 28 29 30 31 32 34 35 36 37 38 37 37 36 37 37 38 39 39 37 36 36 36 36 35 35 34 32 31 32 35 40
17 16 16 18 17 14 15 20 19 27 29 27 27 23 19 20 21 20 19 19 17 15 15 15 13 11 8 7 7 7 8 9 10 11 12 12 11 11 12 12 13 13 14 15 17 19 22 24 25 25 26 27 28 27 28 29 31 33 34 35 35 34 35 37 38 37 37 37 38 39 39 38 38 38 36 36 37 38 39 40 37 33 31 32 35
23 21 18 16 16 16 24 29 25 21 23 22 23 22 20 19 19 18 18 17 15 13 13 12 11 9 8 7 7 8 8 9 10 10 10 10 10 10 11 13 13 12 13 15 17 20 23 24 25 26 26 28 29 28 29 30 31 33 34 35 36 35 35 36 36 37 37 37 37 39 39 39 39 37 35 35 36 38 40 40 37 33 32 32 32
23 17 10 6 11 10 17 22 16 15 19 18 19 21 20 19 19 19 17 16 15 14 12 11 11 9 6 6 7 8 8 8 8 8 8 9 10 10 12 12 11 11 13 16 18 21 23 24 25 27 27 29 29 28 28 30 31 33 34 36 37 36 35 35 34 35 36 36 36 37 38 40 41 40 38 37 37 38 40 41 36 30 29 30 31
17 11 4 3 9 9 6 4 10 12 15 18 20 21 19 18 19 18 16 15 15 13 9 9 10 8 5 6 7 8 7 6 7 7 8 9 10 11 11 10 10 10 13 17 19 22 24 25 26 27 27 27 28 28 28 30 33 34 36 37 37 35 35 35 34 34 34 34 35 35 36 38 40 41 42 43 42 42 44 44 40 34 30 27 25
15 13 7 3 7 1 5 4 8 12 15 16 17 19 18 18 18 16 14 14 13 13 13 11 8 5 5 6 6 5 4 5 6 7 9 9 10 10 9 7 9 11 14 17 20 22 24 26 26 27 27 27 27 29 30 32 34 36 37 38 38 36 35 35 34 34 34 34 34 34 35 35 37 38 40 42 45 47 48 48 49 46 42 35 27
12 13 8 4 3 6 11 11 14 16 15 15 17 18 18 17 16 14 14 15 16 15 13 7 4 4 5 5 4 4 4 4 6 8 9 9 10 10 7 5 8 12 15 17 20 22 23 25 26 27 27 27 28 30 32 34 35 36 37 38 39 38 36 35 34 33 34 34 34 35 36 35 36 38 39 40 42 45 47 50 53 52 50 46 37
7 8 7 7 6 9 12 10 10 11 12 14 17 19 18 16 14 14 16 18 16 13 9 5 4 4 5 5 4 4 4 4 7 8 8 10 11 9 7 7 9 11 13 15 18 21 23 25 26 27 27 28 28 30 32 33 35 37 38 38 39 40 39 37 36 35 35 36 36 36 36 36 37 38 40 40 40 43 46 49 51 50 50 48 40
4 3 4 7 9 11 12 8 5 6 10 13 18 19 18 16 16 18 20 19 14 10 7 5 6 5 5 3 3 3 3 5 7 8 9 12 11 8 7 8 8 10 13 15 18 20 21 23 25 27 28 28 28 29 31 33 35 37 38 38 38 39 39 39 39 39 39 38 37 37 37 37 38 39 40 40 41 43 45 48 47 46 46 44 36
7 9 12 15 18 17 13 9 7 9 10 13 18 19 16 17 21 24 22 18 14 9 5 5 5 5 3 1 1 2 4 6 7 8 11 11 9 7 8 8 7 10 13 15 17 19 20 22 24 25 26 28 28 28 30 33 35 37 37 37 37 38 39 40 41 42 42 41 39 39 40 39 39 39 39 40 42 44 45 46 45 44 42 38 32
14 16 17 21 21 15 10 9 8 9 10 14 19 19 18 22 25 24 18 16 14 9 6 4 3 3 2 1 2 3 5 7 7 8 11 10 9 8 8 8 8 10 13 14 17 19 20 21 23 23 24 26 28 28 30 32 34 35 36 36 37 39 41 41 41 42 42 42 42 43 44 42 40 40 40 39 39 41 42 43 44 44 40 34 31
20 20 19 18 13 7 8 10 8 8 10 16 18 18 22 26 23 19 16 14 11 9 8 5 3 3 3 1 2 2 4 6 8 9 11 12 11 9 9 9 8 9 12 14 17 20 20 20 21 22 24 26 27 28 30 31 32 34 36 38 40 41 41 40 38 37 37 38 40 42 44 44 42 41 40 38 36 35 36 38 40 40 38 34 32
22 19 15 12 8 6 8 8 8 6 8 15 17 16 24 27 20 16 15 12 9 8 7 6 5 4 4 4 4 2 3 7 10 11 12 12 11 10 10 8 7 8 11 13 18 21 21 20 22 23 26 28 28 28 29 31 34 37 39 40 41 40 39 38 36 34 33 34 35 36 37 38 38 37 35 34 35 35 35 37 36 35 34 34 34
20 15 11 9 8 9 9 9 10 8 10 14 14 16 26 26 18 16 15 11 9 7 5 6 7 6 5 5 5 4 6 9 10 11 12 13 12 11 10 7 6 7 10 15 21 23 22 22 24 25 27 29 29 31 33 34 37 39 39 39 38 37 37 38 36 34 33 32 29 26 26 28 30 30 28 27 29 30 31 31 32 31 31 32 33
16 13 11 7 3 3 6 13 12 8 11 15 14 19 25 21 16 17 14 10 9 9 9 8 7 5 6 5 5 6 9 10 11 12 13 14 12 9 7 6 5 6 13 23 27 25 23 23 25 27 29 29 31 34 36 36 36 37 36 35 34 32 32 32 30 29 29 27 21 19 20 22 22 23 23 23 24 25 23 22 26 30 32 33 31
16 13 7 3 4 3 3 14 12 5 9 15 17 22 23 17 15 17 13 9 10 13 11 7 6 4 4 2 4 8 10 11 11 12 13 15 13 7 4 6 6 6 14 27 32 27 22 23 26 29 31 32 32 34 34 33 34 34 33 32 30 27 26 25 22 20 20 19 18 17 16 18 19 20 21 22 22 21 20 20 22 25 30 33 33
Wind_Direction
188 168 160 165 168 160 159 160 161 164 166 168 171 171 167 165 167 167 168 173 179 174 154 133 113 109 107 87 74 74 62 68 99 103 100 86 86 109 104 92 2 354 3 354 318 294 303 320 300 277 262 247 244 247 245 241 234 228 228 235 235 235 242 244 255 269 268 292 294 217 197 202 214 230 235 242 244 239 241 235 230 234 230 222 219
201 175 163 168 166 163 162 160 163 168 171 174 176 176 171 169 172 170 169 177 182 161 142 133 127 122 113 97 82 85 72 71 95 107 111 108 105 117 112 109 65 18 7 327 307 290 288 283 287 300 305 287 267 259 256 251 243 236 237 243 241 238 245 247 250 261 260 269 287 268 231 217 223 231 228 232 240 242 241 235 234 238 235 228 222
212 194 177 173 165 162 163 161 165 171 175 178 179 179 176 175 175 171 170 173 168 157 154 153 151 139 125 123 113 105 94 92 109 107 98 100 98 118 138 172 217 5 340 310 296 285 288 274 272 281 286 288 285 279 271 266 256 245 243 246 248 246 251 251 245 246 249 255 277 284 252 218 224 230 229 231 231 234 237 232 230 234 234 231 225
217 206 203 181 164 159 160 161 167 173 175 178 181 182 180 181 179 172 171 173 166 162 166 164 160 151 137 132 122 122 127 115 111 101 85 77 87 120 149 258 281 321 330 317 313 312 311 286 277 282 273 271 276 278 276 274 272 263 253 247 246 248 251 252 243 239 241 239 238 265 250 237 225 213 219 228 227 227 231 229 227 228 230 230 226
210 208 219 182 155 154 159 164 170 175 176 178 182 183 182 183 181 173 172 173 170 170 174 175 170 161 153 153 157 155 145 121 107 99 88 84 102 156 172 0 318 323 326 331 324 315 318 304 298 303 285 278 278 277 272 267 263 266 265 251 242 242 245 249 242 232 234 232 224 227 246 240 241 211 213 224 224 224 228 227 224 224 226 226 224
215 224 208 151 144 153 159 167 174 178 180 181 183 184 183 184 182 174 173 176 176 176 178 179 175 173 180 187 190 181 150 122 116 109 105 103 76 68 185 180 291 332 341 337 313 305 315 303 297 306 297 287 285 284 283 277 263 253 255 252 244 240 239 241 241 232 225 226 226 227 230 237 270 296 300 228 216 219 225 226 223 224 226 225 223
216 237 197 149 155 163 161 168 177 182 185 183 181 183 184 183 182 176 175 179 179 178 178 177 178 181 189 191 189 187 149 131 139 135 127 138 85 72 152 189 245 260 281 299 299 298 301 292 288 293 293 291 288 287 287 285 279 268 256 250 248 243 236 234 238 237 229 229 232 233 236 244 258 270 278 277 225 218 223 227 227 225 224 223 224
196 219 207 168 169 175 170 170 176 183 187 184 177 181 186 183 180 177 177 181 181 180 178 178 182 181 182 185 186 188 159 148 161 163 146 149 160 162 154 176 197 202 239 239 254 272 275 280 284 282 281 284 284 284 285 283 282 281 275 263 255 250 241 235 236 237 236 237 236 235 239 246 254 260 261 260 269 221 218 228 231 230 226 220 220
189 198 210 196 168 172 176 172 177 184 185 183 178 179 184 184 179 176 179 181 181 183 180 180 185 179 178 185 186 178 166 170 177 173 168 163 170 180 169 201 210 162 198 221 239 248 255 264 270 275 276 278 281 280 280 283 284 283 284 281 270 259 250 240 237 237 235 233 233 236 241 245 249 255 260 262 265 262 223 222 226 228 231 224 219
193 190 196 205 166 165 176 175 178 183 182 181 179 178 183 184 179 177 181 183 183 185 183 183 186 180 179 186 185 176 174 186 181 170 178 185 182 188 190 207 224 219 212 218 228 229 241 251 256 266 266 268 277 278 278 282 289 289 287 286 283 276 264 248 240 238 236 234 233 233 235 236 238 245 250 251 255 256 243 255 233 215 223 225 221
195 186 181 193 169 164 173 176 177 178 177 178 177 178 183 184 180 178 182 184 185 187 187 186 185 181 184 187 185 183 181 185 182 177 184 190 187 192 203 208 212 225 232 238 240 230 239 252 258 263 262 263 266 271 277 281 287 289 285 282 280 278 276 265 252 242 237 236 234 233 232 231 231 234 236 234 236 235 222 259 250 222 239 238 227
193 182 176 183 170 163 167 170 173 174 174 176 176 178 183 185 182 180 183 186 186 188 187 186 186 183 188 188 185 189 188 187 191 191 188 191 197 197 204 216 221 228 231 240 243 234 242 255 265 272 272 271 266 266 270 271 278 282 280 280 278 273 273 275 270 257 243 237 236 236 235 234 234 236 237 233 232 230 221 235 249 246 280 279 268
193 183 179 175 165 158 159 165 173 175 174 174 175 179 183 185 184 183 185 185 185 186 185 186 187 185 187 188 186 189 191 190 193 195 192 194 202 202 204 218 228 233 231 237 243 242 252 260 264 270 274 275 272 271 270 268 273 277 277 280 281 276 273 274 276 272 262 249 241 238 237 236 237 238 239 237 235 236 230 239 258 257 256 269 276
203 195 185 169 162 157 159 169 175 172 171 174 177 181 183 184 186 186 186 184 183 185 185 187 188 188 189 189 188 190 191 192 193 197 198 198 202 205 209 219 229 240 241 245 251 252 255 260 262 264 268 271 272 273 275 274 275 277 277 278 278 278 277 276 276 276 274 265 253 245 241 239 239 239 241 240 236 236 233 232 248 259 260 258 265
214 213 200 169 162 163 165 171 169 163 169 178 181 182 184 186 188 188 186 183 183 183 185 188 189 189 191 190 191 192 192 194 196 200 203 200 204 207 211 221 229 240 249 252 256 255 257 263 268 272 273 275 276 275 277 278 279 280 280 278 277 279 278 277 276 275 275 273 264 255 246 241 239 238 239 240 237 236 234 233 232 240 258 253 257
207 215 221 174 161 166 168 167 163 163 172 182 184 184 187 189 189 189 187 182 182 184 185 188 189 190 193 193 193 192 192 195 197 201 204 201 203 208 213 225 232 239 249 256 259 259 263 268 272 276 278 280 281 281 279 279 280 282 282 280 278 278 278 277 277 275 274 273 270 264 255 247 241 238 237 239 239 238 235 234 230 225 231 241 251
226 210 210 185 161 161 163 166 168 170 176 184 188 188 189 190 188 188 187 182 182 185 185 188 189 190 194 195 195 194 193 196 198 201 202 201 206 212 217 225 236 245 252 257 261 262 265 269 272 275 276 277 279 282 281 280 281 282 282 281 279 278 277 277 277 277 276 273 270 267 258 249 244 240 238 237 238 238 237 235 232 226 223 225 240
271 249 215 192 159 157 162 170 177 179 181 184 188 188 188 190 189 186 185 183 183 185 186 187 188 190 193 195 196 197 195 196 199 201 201 203 212 220 226 232 239 247 252 256 262 266 270 272 276 277 277 277 278 278 279 279 281 282 281 279 279 279 279 278 276 276 277 277 274 269 260 251 247 244 241 239 238 237 237 235 234 231 227 224 226
261 264 242 220 173 162 163 169 178 182 183 185 185 181 179 184 188 188 187 185 184 185 185 186 187 189 192 194 196 197 198 198 199 201 203 208 216 220 225 234 240 246 253 260 264 268 272 274 277 280 280 280 279 277 277 278 279 280 281 280 280 280 280 278 276 275 275 276 275 272 265 257 252 247 243 242 240 237 236 236 235 233 230 229 229
227 246 247 234 210 180 166 167 176 181 184 189 183 173 173 181 186 188 190 187 183 183 183 184 186 187 189 193 195 196 197 198 200 202 206 211 217 222 228 235 243 250 257 261 261 264 270 275 279 281 282 282 281 279 276 276 277 277 277 277 278 279 279 278 276 275 273 274 274 273 269 262 255 249 244 243 241 238 236 234 234 233 231 230 229
198 228 255 239 219 190 165 166 180 187 189 189 178 171 174 181 184 187 190 187 182 181 183 183 184 187 189 192 194 195 196 198 201 203 208 215 220 226 232 238 244 252 257 258 261 267 273 277 279 280 281 281 282 281 280 278 277 276 276 275 276 276 276 276 277 275 272 271 272 272 272 268 262 252 245 243 242 239 237 235 233 231 230 228 225
177 195 259 260 222 188 167 173 190 192 183 179 174 174 177 179 181 185 187 187 183 182 184 184 184 187 190 192 193 194 196 197 200 204 210 217 224 231 236 240 246 251 255 259 265 271 275 277 278 278 278 278 279 280 281 280 278 275 274 274 274 273 273 273 273 273 272 270 271 272 273 272 268 260 249 242 240 239 238 237 234 229 228 228 224
234 194 236 264 250 212 186 190 200 183 164 167 171 175 177 177 179 183 186 187 184 182 184 183 184 186 188 190 191 192 195 198 201 207 213 219 227 234 238 242 248 254 259 264 269 273 275 277 277 278 278 278 279 280 280 279 278 276 274 274 273 271 271 270 269 270 270 269 269 270 271 273 272 270 260 247 240 238 237 237 236 234 232 231 227
289 264 243 252 255 240 212 203 202 173 157 165 171 173 175 175 179 182 186 187 182 180 183 181 182 185 186 188 190 191 195 198 202 208 215 223 230 235 240 246 252 259 267 271 273 274 274 276 277 279 280 279 279 279 279 278 275 274 274 273 272 271 269 269 267 268 268 268 267 266 266 269 271 274 273 262 248 239 235 236 238 238 235 235 233
308 293 269 254 244 247 237 217 210 182 162 168 172 173 176 176 180 184 183 183 180 178 181 181 180 182 183 187 190 192 195 199 204 210 217 226 232 237 243 250 257 265 271 274 276 276 276 277 278 278 279 278 279 278 277 277 275 273 273 271 270 269 269 269 267 267 267 266 266 266 264 264 266 269 272 271 264 250 238 235 237 239 237 236 236
309 297 281 268 252 249 244 238 234 200 167 171 178 177 177 178 182 184 180 179 178 177 180 181 180 180 182 186 190 193 197 200 206 212 220 227 232 238 247 255 261 269 274 276 279 280 280 280 279 279 278 277 278 277 276 275 274 273 273 272 271 269 269 269 268 268 267 265 265 266 265 263 262 263 264 266 269 266 254 240 235 237 238 238 237
291 289 285 284 276 264 250 245 249 215 173 175 182 179 178 180 182 181 179 178 175 176 180 180 179 179 182 186 190 194 198 201 208 214 219 226 232 240 251 257 263 272 277 280 282 283 284 285 283 282 281 279 279 278 277 277 277 275 273 271 271 271 270 269 268 267 267 266 264 264 265 264 262 261 261 261 262 266 269 261 248 241 238 238 239
272 266 264 271 294 289 265 246 245 231 194 176 177 183 181 179 181 178 177 177 174 175 179 178 178 180 181 186 191 194 198 201 206 212 217 226 234 242 251 259 268 275 278 281 284 286 287 287 285 283 282 281 280 278 276 277 277 276 274 272 271 270 269 269 268 268 268 268 267 265 264 264 263 261 260 259 258 259 265 269 264 254 244 238 238
270 262 260 263 267 285 277 262 258 254 225 181 174 187 183 172 177 177 174 175 174 174 176 177 178 179 180 185 188 190 196 199 202 211 219 226 234 244 255 265 271 274 278 282 286 287 288 288 287 286 284 282 280 277 274 273 274 274 274 274 274 272 271 270 269 268 267 267 268 267 265 264 264 263 261 259 259 257 257 260 261 261 259 252 244
271 263 259 255 249 250 269 290 319 309 290 233 185 182 174 167 173 174 171 172 172 172 175 177 178 177 179 183 186 188 193 198 205 215 219 224 236 250 261 267 270 274 280 283 285 289 291 292 291 289 287 285 282 279 277 274 273 273 274 274 273 273 274 275 275 274 272 269 267 267 267 266 265 265 264 262 261 258 257 256 256 257 261 264 261
282 275 264 250 243 228 190 183 71 0 322 299 232 178 163 166 173 171 169 171 171 172 175 176 176 176 178 182 186 190 195 202 210 213 216 230 246 256 263 268 273 278 281 283 287 292 294 293 292 290 288 286 283 282 281 280 278 278 278 277 274 272 271 271 272 275 277 276 272 269 268 268 267 266 265 264 263 261 258 255 255 254 255 257 259
299 297 296 286 266 236 187 173 159 149 294 289 258 185 160 165 172 170 169 170 171 174 175 175 176 175 178 183 187 192 199 206 211 214 224 241 252 258 264 270 274 279 282 286 292 295 293 292 291 290 288 286 286 285 283 283 283 283 283 282 280 277 272 268 266 266 270 274 274 273 271 269 267 267 266 265 264 263 261 258 255 254 253 253 254
300 302 314 314 300 283 230 183 164 172 216 238 229 198 173 170 170 168 170 171 170 174 175 174 175 175 177 184 188 194 203 207 211 222 235 247 255 259 264 270 275 280 285 290 295 295 294 293 291 289 288 287 287 286 285 285 286 286 286 286 285 282 276 271 268 264 264 266 269 271 272 270 268 267 266 265 263 263 263 262 259 256 254 252 252
290 294 307 307 305 308 275 212 182 182 191 193 206 210 185 169 167 167 171 172 170 174 175 173 175 177 178 183 188 194 203 209 218 231 241 249 256 261 267 273 278 284 291 297 298 297 295 293 291 289 287 286 284 284 285 285 285 284 284 285 286 284 280 275 272 268 265 264 265 266 267 268 268 267 266 265 263 261 261 261 258 255 254 252 251
287 283 290 294 297 310 294 249 201 180 173 181 209 214 183 165 167 169 171 172 170 173 174 171 173 176 176 181 190 198 205 215 228 239 246 253 260 264 269 276 282 291 300 302 301 299 295 292 291 290 288 285 283 283 285 286 285 285 284 283 281 281 279 276 273 270 267 265 264 263 264 264 264 264 263 263 264 264 263 262 258 252 249 249 250
302 291 282 280 272 278 292 270 205 170 166 181 199 202 181 164 166 171 172 169 169 173 173 168 167 169 175 186 195 204 214 225 237 245 250 256 261 267 273 282 292 300 303 302 301 299 296 295 294 293 291 289 288 288 289 290 290 291 291 287 281 277 276 275 273 271 269 266 264 262 262 261 260 260 260 260 263 266 268 270 268 262 253 247 247
300 287 272 270 265 253 267 267 223 182 176 182 182 180 176 166 165 170 169 167 173 177 172 169 170 171 179 194 208 219 227 235 242 250 257 261 268 278 288 298 306 309 306 305 303 300 299 298 296 294 293 292 292 293 293 292 293 294 294 292 285 279 276 273 272 271 269 267 264 261 261 260 259 258 257 258 260 263 267 271 272 272 269 259 250
293 286 274 276 282 253 232 234 226 188 164 161 162 165 170 168 165 166 167 169 176 173 166 170 177 181 188 199 216 231 239 246 253 260 271 280 287 295 299 302 307 312 312 311 308 303 299 298 297 296 296 295 295 295 295 294 294 294 293 291 287 281 277 273 271 271 269 267 264 261 258 257 257 256 255 256 256 258 263 267 269 271 272 269 261
299 297 290 326 349 307 230 206 182 146 141 156 170 171 169 165 161 162 165 168 171 173 175 172 164 164 183 201 219 236 244 255 265 275 287 295 298 298 297 300 308 318 319 315 312 306 301 300 299 299 298 297 296 295 295 294 294 294 294 292 287 280 275 273 271 270 268 265 263 261 257 254 255 255 255 255 254 255 258 261 265 269 267 267 267
316 314 278 113 50 356 301 146 122 139 162 175 177 169 164 160 155 159 167 168 167 164 151 128 121 131 176 216 226 235 244 259 275 290 295 296 298 296 298 307 315 319 318 315 312 307 303 302 301 300 299 297 296 296 295 295 294 294 294 293 289 280 273 271 269 267 265 262 260 259 256 254 254 254 253 253 251 251 254 256 261 265 262 264 277
324 319 286 158 111 180 243 179 163 180 181 180 174 162 156 153 152 160 167 159 141 117 103 99 105 139 200 224 229 239 260 274 286 297 296 293 295 296 302 322 326 322 320 316 310 305 302 301 301 300 299 297 296 296 295 294 294 292 292 293 291 284 277 271 267 264 261 260 259 257 256 255 253 253 252 251 249 249 250 252 256 259 258 259 274
322 331 340 28 33 249 235 212 193 190 188 184 170 152 143 145 152 159 148 131 118 105 102 114 141 175 213 227 231 251 271 280 287 290 289 290 293 294 305 335 334 328 326 320 314 310 306 303 301 300 298 296 296 296 294 293 293 293 293 293 291 289 285 276 268 263 260 259 258 257 257 256 254 252 251 249 248 248 248 249 251 254 256 256 263
323 354 9 359 325 266 244 228 197 189 191 176 155 141 139 148 156 147 126 118 116 111 115 146 174 196 224 230 232 253 269 282 289 290 292 295 295 294 310 329 329 328 324 317 314 311 307 305 302 299 298 295 294 294 293 292 294 295 295 295 292 292 290 283 274 266 262 260 258 257 256 256 254 252 249 247 248 248 248 248 250 253 255 254 257
332 335 292 284 270 241 230 218 187 201 203 169 145 141 146 150 141 123 111 108 109 110 127 170 194 207 215 226 248 278 300 302 301 304 301 297 295 301 318 323 321 321 314 305 303 304 304 304 302 300 297 295 293 294 294 294 295 296 296 296 294 293 290 286 280 273 267 262 258 255 255 255 253 250 247 245 247 249 248 248 249 251 252 251 250
304 279 263 254 246 233 215 188 184 211 203 157 143 146 148 135 120 113 111 113 117 125 160 190 200 197 190 248 298 337 335 322 316 313 304 297 298 310 320 315 307 309 307 302 304 306 306 305 304 300 297 295 295 296 296 295 297 299 298 297 296 294 290 286 282 277 271 265 259 256 255 254 252 249 245 243 245 247 249 250 249 248 248 246 240
287 275 258 244 241 227 189 167 181 208 187 151 149 153 138 120 115 117 121 125 130 148 179 191 187 164 134 28 6 13 345 326 324 324 321 317 313 316 323 319 310 312 311 309 310 310 307 305 304 301 299 299 298 298 297 298 300 301 300 299 298 297 295 291 284 278 273 267 262 259 255 250 247 245 242 241 244 247 249 250 250 248 243 236 227
278 271 252 243 246 224 180 171 178 205 183 155 156 154 132 122 122 126 126 129 140 161 174 173 169 138 109 44 6 2 334 334 344 343 337 333 327 327 332 328 319 317 314 311 311 311 309 305 304 303 303 303 301 299 299 301 303 303 302 302 302 300 298 295 287 279 273 268 265 262 255 247 243 242 242 242 247 253 256 254 250 244 236 226 217
277 265 243 241 247 226 204 173 156 190 179 155 161 151 127 121 124 125 127 134 149 163 167 168 163 128 76 27 8 0 342 353 355 346 341 344 342 336 330 324 318 314 313 316 319 317 313 308 306 307 307 305 302 301 302 304 307 307 306 306 306 303 300 296 289 280 274 271 268 262 251 241 237 239 243 247 252 260 264 257 244 233 223 214 205
272 253 235 244 239 220 204 153 144 180 176 160 163 142 123 123 128 131 136 142 145 154 174 175 161 132 84 31 3 5 10 7 359 348 349 354 347 335 326 319 312 319 337 348 340 326 317 314 311 310 311 307 302 303 308 310 312 311 310 309 307 306 305 302 293 282 276 271 262 246 231 225 227 232 239 245 250 254 253 242 225 210 202 196 191
261 242 230 235 242 233 171 136 142 185 167 147 142 128 124 129 135 137 141 141 147 179 198 181 157 123 83 45 3 2 14 12 2 357 0 356 343 329 323 322 324 345 4 4 354 337 323 319 316 315 315 312 307 309 315 318 318 317 315 312 310 312 314 312 300 284 273 260 240 219 213 215 218 222 228 233 235 232 223 208 195 187 183 180 178
254 247 231 153 86 355 113 126 135 181 158 144 139 131 130 136 138 138 143 155 180 207 204 157 118 101 101 80 9 6 10 12 12 12 7 352 338 332 324 318 325 353 1 360 356 344 330 325 323 322 321 320 318 320 324 325 324 322 319 315 313 316 323 326 312 286 262 237 213 201 203 207 209 212 217 218 214 205 191 178 172 171 172 171 168